Orbital Elements at Epoch 2459000.5 (2020-May-31.0) TDB
Reference: JPL 23 (heliocentric ecliptic J2000)
Element | Value | Uncertainty (1-sigma) | Units |
e | .02072567135758666 | 5.1545e-08 | |
a | 5.144425744479324 | 9.8982e-08 | au |
q | 5.037804067175738 | 3.263e-07 | au |
i | 26.4129646133467 | 5.409e-06 | deg |
node | 219.3414975202826 | 1.0359e-05 | deg |
peri | 213.70525412635 | 0.00014843 | deg |
M | 261.7017626351805 | 0.00015159 | deg |
tp | 2460164.216014294788 (2023-Aug-07.71601429) | 0.0018128 | TDB |
period | 4261.905161038621 11.67 | 0.000123 3.368e-07 | d yr |
n | .08446926583234161 | 2.4379e-09 | deg/d |
Q | 5.251047421782912 | 1.0103e-07 | au |
|
| | Orbit Determination Parameters
Additional Information
|